�������l�o���
Date,Time,MP-1(��Sv/h),MP-2(��Sv/h),MP-3(��Sv/h),MP-4(��Sv/h),MP-5(��Sv/h),MP-6(��Sv/h),MP-7(��Sv/h),MP-8(��Sv/h),����,����(m/s),���J
2016/10/25,00:00,1.168,1.982,1.361,2.203,1.548,0.612,1.083,0.995,���쐼,5.8,��
2016/10/25,00:10,1.172,1.981,1.360,2.203,1.549,0.611,1.080,0.994,���쐼,6.3,��
2016/10/25,00:20,1.169,1.980,1.360,2.206,1.550,0.610,1.078,0.994,���쐼,6.6,��
2016/10/25,00:30,1.170,1.978,1.360,2.205,1.551,0.610,1.082,0.996,��,6.0,��
2016/10/25,00:40,1.170,1.979,1.360,2.205,1.548,0.610,1.081,0.996,���쐼,5.5,��
2016/10/25,00:50,1.170,1.978,1.360,2.204,1.548,0.612,1.082,0.993,��,7.2,��
2016/10/25,01:00,1.170,1.979,1.360,2.204,1.547,0.608,1.082,0.994,��,6.9,��
2016/10/25,01:10,1.167,1.980,1.361,2.203,1.548,0.610,1.080,0.997,��,7.4,��
2016/10/25,01:20,1.166,1.979,1.361,2.204,1.550,0.611,1.083,0.995,��,5.5,��
2016/10/25,01:30,1.168,1.978,1.361,2.204,1.549,0.609,1.083,0.994,���k��,4.9,��
2016/10/25,01:40,1.168,1.980,1.358,2.202,1.549,0.612,1.081,0.995,��,4.7,��
2016/10/25,01:50,1.166,1.979,1.358,2.201,1.549,0.610,1.082,0.994,��,5.0,��
2016/10/25,02:00,1.168,1.980,1.360,2.202,1.550,0.609,1.080,0.995,��,5.2,��
2016/10/25,02:10,1.169,1.980,1.358,2.204,1.548,0.611,1.082,0.995,��,4.9,��
2016/10/25,02:20,1.169,1.978,1.360,2.200,1.547,0.610,1.080,0.995,��,4.9,��
2016/10/25,02:30,1.167,1.983,1.358,2.203,1.547,0.610,1.080,0.994,��,5.0,��
2016/10/25,02:40,1.168,1.979,1.357,2.200,1.545,0.609,1.081,0.997,��,4.5,��
2016/10/25,02:50,1.166,1.980,1.357,2.201,1.545,0.611,1.082,0.996,��,5.8,��
2016/10/25,03:00,1.169,1.979,1.360,2.201,1.545,0.609,1.083,0.998,��,6.0,��
2016/10/25,03:10,1.167,1.980,1.358,2.201,1.547,0.610,1.082,0.994,��,7.4,��
2016/10/25,03:20,1.166,1.977,1.359,2.202,1.547,0.609,1.082,0.995,��,7.2,��
2016/10/25,03:30,1.168,1.977,1.359,2.203,1.546,0.609,1.080,0.995,��,7.5,��
2016/10/25,03:40,1.167,1.979,1.360,2.202,1.545,0.608,1.082,0.996,��,8.0,��
2016/10/25,03:50,1.167,1.977,1.358,2.200,1.550,0.608,1.081,0.996,��,8.2,��
2016/10/25,04:00,1.166,1.978,1.361,2.200,1.545,0.609,1.080,0.995,��,8.8,��
2016/10/25,04:10,1.167,1.978,1.355,2.204,1.545,0.610,1.081,0.994,��,6.9,��
2016/10/25,04:20,1.168,1.980,1.360,2.202,1.545,0.608,1.081,0.996,���k��,6.6,��
2016/10/25,04:30,1.168,1.977,1.357,2.201,1.547,0.609,1.080,0.993,���k��,6.0,��
2016/10/25,04:40,1.168,1.977,1.361,2.198,1.545,0.609,1.081,0.996,��,3.6,��
2016/10/25,04:50,1.166,1.977,1.357,2.200,1.549,0.608,1.081,0.994,��,3.8,��
2016/10/25,05:00,1.164,1.977,1.358,2.201,1.545,0.609,1.081,0.994,��,3.6,��
2016/10/25,05:10,1.168,1.976,1.356,2.198,1.547,0.608,1.082,0.995,��,3.8,��
2016/10/25,05:20,1.165,1.974,1.357,2.198,1.546,0.610,1.081,0.996,��,3.0,��
2016/10/25,05:30,1.165,1.976,1.355,2.201,1.546,0.608,1.082,0.995,���k��,2.6,��
2016/10/25,05:40,1.165,1.976,1.357,2.197,1.546,0.607,1.081,0.994,���k��,3.3,��
2016/10/25,05:50,1.165,1.978,1.357,2.201,1.545,0.608,1.078,0.993,��,2.5,��
2016/10/25,06:00,1.165,1.979,1.356,2.198,1.544,0.607,1.080,0.994,��,2.4,��
2016/10/25,06:10,1.165,1.975,1.355,2.198,1.546,0.608,1.079,0.995,��,2.7,��
2016/10/25,06:20,1.168,1.973,1.355,2.200,1.544,0.607,1.081,0.993,���k��,3.3,��
2016/10/25,06:30,1.165,1.975,1.358,2.200,1.545,0.607,1.082,0.996,��,3.3,��
2016/10/25,06:40,1.168,1.976,1.360,2.201,1.545,0.608,1.081,0.994,��,3.5,��
2016/10/25,06:50,1.165,1.977,1.358,2.201,1.543,0.608,1.079,0.995,���쐼,3.2,��
2016/10/25,07:00,1.165,1.976,1.356,2.203,1.545,0.609,1.080,0.995,���쐼,2.3,��
2016/10/25,07:10,1.166,1.975,1.357,2.202,1.545,0.608,1.080,0.994,�쐼,2.5,��
2016/10/25,07:20,1.166,1.974,1.358,2.201,1.545,0.610,1.081,0.994,��쐼,2.3,��
2016/10/25,07:30,1.165,1.978,1.354,2.200,1.548,0.608,1.080,0.995,��쐼,1.8,��
2016/10/25,07:40,1.168,1.977,1.350,2.202,1.545,0.608,1.080,0.995,��쐼,2.3,��
2016/10/25,07:50,1.170,1.976,1.356,2.204,1.547,0.611,1.078,0.995,��,2.5,��
2016/10/25,08:00,1.150,1.977,1.358,2.201,1.548,0.611,1.083,0.997,��쐼,3.1,��
2016/10/25,08:10,1.143,1.973,1.358,2.202,1.546,0.609,1.083,0.995,��쐼,3.4,��
2016/10/25,08:20,1.147,1.978,1.360,2.202,1.548,0.609,1.082,0.996,��쐼,1.9,��
2016/10/25,08:30,1.147,1.977,1.360,2.205,1.549,0.609,1.081,0.996,��,2.3,��
2016/10/25,08:40,1.140,1.976,1.360,2.203,1.547,0.611,1.080,0.997,��,2.8,��
2016/10/25,08:50,1.135,1.981,1.359,2.204,1.550,0.609,1.082,0.995,�쓌,2.8,��
2016/10/25,09:00,1.136,1.978,1.359,2.203,1.551,0.609,1.084,0.996,��쓌,3.4,��
2016/10/25,09:10,1.146,1.982,1.361,2.206,1.551,0.611,1.081,0.999,�쓌,3.0,��
2016/10/25,09:20,1.147,1.979,1.362,2.205,1.551,0.610,1.081,0.998,��쓌,3.2,��
2016/10/25,09:30,1.147,1.979,1.361,2.205,1.550,0.612,1.080,0.997,�쓌,4.1,��
2016/10/25,09:40,1.141,1.974,1.361,2.207,1.551,0.610,1.082,0.998,��쓌,3.3,��
2016/10/25,09:50,1.141,1.981,1.362,2.208,1.548,0.609,1.081,0.998,��쓌,4.4,��
2016/10/25,10:00,1.141,1.974,1.359,2.206,1.549,0.610,1.082,0.997,��쓌,4.4,��
2016/10/25,10:10,1.146,1.975,1.359,2.212,1.548,0.608,1.083,0.996,��쓌,4.4,��
2016/10/25,10:20,1.131,1.973,1.360,2.204,1.551,0.608,1.084,0.996,��쓌,4.6,��
2016/10/25,10:30,1.115,1.973,1.358,2.209,1.549,0.608,1.082,0.997,�쓌,4.5,��
2016/10/25,10:40,1.123,1.977,1.359,2.211,1.550,0.608,1.082,0.995,��쓌,6.3,��
2016/10/25,10:50,1.122,1.975,1.359,2.213,1.551,0.609,1.081,0.996,��쓌,6.9,��
2016/10/25,11:00,1.125,1.975,1.362,2.207,1.554,0.609,1.081,0.995,��쓌,8.6,��
2016/10/25,11:10,1.124,1.979,1.361,2.209,1.552,0.607,1.084,0.996,��쓌,9.3,��
2016/10/25,11:20,1.124,1.979,1.361,2.209,1.553,0.610,1.084,0.999,��쓌,10.4,��
2016/10/25,11:30,1.127,1.981,1.364,2.208,1.555,0.612,1.084,0.998,��쓌,9.9,��
2016/10/25,11:40,1.127,1.985,1.366,2.213,1.554,0.611,1.084,0.997,��쓌,11.3,��
2016/10/25,11:50,1.126,1.981,1.365,2.207,1.555,0.611,1.087,0.999,��쓌,11.0,��
2016/10/25,12:00,1.138,1.977,1.364,2.211,1.555,0.610,1.085,0.997,��쓌,9.7,��
2016/10/25,12:10,1.141,1.980,1.366,2.211,1.556,0.612,1.085,0.996,��쓌,11.6,��
2016/10/25,12:20,1.146,1.985,1.365,2.212,1.559,0.613,1.083,0.996,��쓌,11.5,��
2016/10/25,12:30,1.145,1.984,1.365,2.209,1.554,0.613,1.084,0.996,��쓌,12.2,��
2016/10/25,12:40,1.147,1.979,1.362,2.214,1.554,0.614,1.083,0.994,��쓌,11.9,��
2016/10/25,12:50,1.147,1.985,1.365,2.210,1.557,0.614,1.085,0.996,��쓌,11.1,��
2016/10/25,13:00,1.147,1.980,1.362,2.213,1.557,0.614,1.085,0.995,��쓌,12.8,��
2016/10/25,13:10,1.147,1.985,1.365,2.211,1.553,0.615,1.084,0.995,��쓌,11.1,��
2016/10/25,13:20,1.144,1.981,1.364,2.217,1.557,0.613,1.085,0.995,��쓌,13.0,��
2016/10/25,13:30,1.122,1.984,1.362,2.213,1.557,0.612,1.083,0.995,��쓌,11.9,��
2016/10/25,13:40,1.123,1.976,1.360,2.213,1.555,0.613,1.084,0.996,��쓌,10.8,��
2016/10/25,13:50,1.123,1.979,1.360,2.214,1.556,0.613,1.086,0.994,��쓌,10.4,��
2016/10/25,14:00,1.121,1.982,1.364,2.215,1.557,0.614,1.086,0.994,��,9.1,��
2016/10/25,14:10,1.124,1.980,1.366,2.212,1.556,0.613,1.085,0.996,��,9.7,��
2016/10/25,14:20,1.124,1.980,1.364,2.208,1.555,0.616,1.087,0.995,��,9.4,��
2016/10/25,14:30,1.123,1.980,1.363,2.204,1.556,0.616,1.086,0.994,��,8.2,��
2016/10/25,14:40,1.123,1.981,1.363,2.204,1.559,0.616,1.086,0.996,��,9.4,��
2016/10/25,14:50,1.122,1.985,1.361,2.205,1.557,0.613,1.086,0.993,��,8.8,��
2016/10/25,15:00,1.124,1.979,1.362,2.210,1.558,0.614,1.084,0.995,��,8.6,��
2016/10/25,15:10,1.124,1.984,1.364,2.218,1.555,0.611,1.084,0.995,��,7.7,��
2016/10/25,15:20,1.123,1.987,1.367,2.213,1.558,0.613,1.084,0.996,��,7.2,��
2016/10/25,15:30,1.124,1.986,1.366,2.213,1.557,0.614,1.084,0.998,��,8.3,��
2016/10/25,15:40,1.122,1.989,1.367,2.216,1.555,0.615,1.085,0.999,��,8.6,��
2016/10/25,15:50,1.124,1.988,1.366,2.214,1.556,0.613,1.086,0.996,��,9.9,��
2016/10/25,16:00,1.126,1.991,1.366,2.217,1.555,0.613,1.088,0.999,��,10.8,��
2016/10/25,16:10,1.124,1.992,1.368,2.217,1.557,0.613,1.084,0.996,��,8.8,��
2016/10/25,16:20,1.124,1.989,1.367,2.212,1.556,0.613,1.086,0.996,��,9.4,��
2016/10/25,16:30,1.125,1.990,1.365,2.216,1.558,0.614,1.084,0.998,��쐼,9.6,��
2016/10/25,16:40,1.123,1.992,1.366,2.214,1.558,0.615,1.085,0.997,��,10.4,��
2016/10/25,16:50,1.125,1.991,1.367,2.214,1.555,0.612,1.086,0.999,��,10.1,��
2016/10/25,17:00,1.124,1.994,1.366,2.214,1.555,0.613,1.086,1.000,��,10.5,��
2016/10/25,17:10,1.124,1.993,1.368,2.212,1.559,0.614,1.085,1.000,��,9.1,��
2016/10/25,17:20,1.127,1.993,1.365,2.215,1.556,0.615,1.086,0.999,��,9.9,��
2016/10/25,17:30,1.126,1.992,1.367,2.214,1.557,0.615,1.087,1.000,��,8.2,��
2016/10/25,17:40,1.129,1.993,1.366,2.213,1.554,0.614,1.084,0.999,��쐼,9.3,��
2016/10/25,17:50,1.128,1.993,1.367,2.216,1.558,0.613,1.083,0.999,��,10.1,��
2016/10/25,18:00,1.128,1.991,1.367,2.214,1.560,0.614,1.086,1.000,��,12.7,��
2016/10/25,18:10,1.127,1.993,1.369,2.218,1.560,0.612,1.085,0.999,��,13.0,��
2016/10/25,18:20,1.129,1.993,1.368,2.215,1.560,0.613,1.084,0.999,��,10.7,��
2016/10/25,18:30,1.126,1.991,1.366,2.216,1.559,0.613,1.086,1.001,��,10.5,��
2016/10/25,18:40,1.128,1.995,1.367,2.217,1.558,0.613,1.084,0.999,��,13.9,��
2016/10/25,18:50,1.128,1.993,1.367,2.215,1.557,0.614,1.086,1.000,��,11.1,��
2016/10/25,19:00,1.130,1.989,1.366,2.215,1.561,0.614,1.085,1.001,��,13.5,��
2016/10/25,19:10,1.128,1.987,1.366,2.216,1.558,0.615,1.087,1.001,��,13.2,��
2016/10/25,19:20,1.127,1.990,1.365,2.217,1.559,0.612,1.086,0.999,��,10.8,��
2016/10/25,19:30,1.125,1.994,1.368,2.215,1.558,0.612,1.086,1.000,��,8.2,��
2016/10/25,19:40,1.129,1.988,1.368,2.214,1.559,0.615,1.084,1.000,��,6.9,��
2016/10/25,19:50,1.128,1.990,1.368,2.215,1.562,0.613,1.087,1.001,��,7.5,��
2016/10/25,20:00,1.127,1.989,1.369,2.215,1.558,0.615,1.087,0.999,��쐼,7.7,��
2016/10/25,20:10,1.128,1.994,1.368,2.211,1.559,0.613,1.086,1.000,��,7.7,��
2016/10/25,20:20,1.131,1.992,1.366,2.215,1.560,0.614,1.085,1.000,��,7.8,��
2016/10/25,20:30,1.128,1.992,1.368,2.214,1.557,0.615,1.086,1.000,��,10.0,��
2016/10/25,20:40,1.127,1.991,1.366,2.215,1.560,0.614,1.086,0.999,��,7.7,��
2016/10/25,20:50,1.129,1.991,1.369,2.216,1.558,0.613,1.087,1.001,��,9.4,��
2016/10/25,21:00,1.131,1.989,1.369,2.215,1.557,0.611,1.087,1.002,��,8.8,��
2016/10/25,21:10,1.131,1.993,1.368,2.215,1.560,0.613,1.087,1.002,��쐼,11.5,��
2016/10/25,21:20,1.130,1.992,1.369,2.218,1.557,0.612,1.088,1.001,��,10.8,��
2016/10/25,21:30,1.128,1.992,1.370,2.216,1.560,0.614,1.087,1.000,��,8.6,��
2016/10/25,21:40,1.128,1.993,1.368,2.218,1.562,0.614,1.085,1.001,��,6.1,��
2016/10/25,21:50,1.131,1.991,1.371,2.218,1.561,0.614,1.086,1.000,��,8.0,��
2016/10/25,22:00,1.129,1.992,1.371,2.215,1.562,0.617,1.088,0.999,��,7.1,��
2016/10/25,22:10,1.129,1.991,1.368,2.217,1.561,0.616,1.087,1.001,��,9.3,��
2016/10/25,22:20,1.129,1.991,1.368,2.217,1.560,0.616,1.088,1.001,��쓌,10.2,��
2016/10/25,22:30,1.131,1.989,1.367,2.211,1.561,0.613,1.085,1.000,��쓌,9.9,��
2016/10/25,22:40,1.129,1.988,1.367,2.217,1.559,0.616,1.087,1.000,��쓌,10.4,��
2016/10/25,22:50,1.129,1.991,1.370,2.217,1.560,0.615,1.088,1.000,��,10.5,��
2016/10/25,23:00,1.127,1.991,1.369,2.216,1.559,0.616,1.087,0.999,��쓌,10.8,��
2016/10/25,23:10,1.129,1.991,1.371,2.216,1.561,0.616,1.087,1.000,��쓌,12.2,��
2016/10/25,23:20,1.126,1.991,1.372,2.214,1.559,0.616,1.086,0.999,��쓌,14.0,��
2016/10/25,23:30,1.128,1.994,1.366,2.219,1.561,0.614,1.087,0.997,��쓌,11.6,��
2016/10/25,23:40,1.126,1.993,1.368,2.215,1.556,0.617,1.085,1.002,��쓌,11.6,��
2016/10/25,23:50,1.127,1.990,1.369,2.214,1.560,0.613,1.085,0.999,��,10.5,��
